DW8362 Weather Reports


time (UTC)temp
F
wind
direction
speed
knots
gust
knots
rain 1hr
in
rain 24hr
in
rain mn
in
humidity
%
barometer
mb
20260507214904 71 210 0.0 2.6 0.00 0.02 0.00 36 1006.5
20260507214405 71 166 0.9 1.7 0.00 0.02 0.00 36 1006.3
20260507213902 70 338 0.0 1.7 0.00 0.02 0.00 37 1006.4
20260507213408 68 231 0.0 4.3 0.00 0.02 0.00 39 1006.5
20260507213403 69 192 0.0 4.3 0.00 0.02 0.00 38 1006.4
20260507212404 68 310 0.0 5.2 0.00 0.02 0.00 39 1006.5
20260507211903 68 324 1.7 5.2 0.00 0.02 0.00 37 1006.5
20260507211404 69 329 1.7 4.3 0.00 0.02 0.00 38 1006.5
20260507210903 70 319 1.7 4.3 0.00 0.02 0.00 37 1006.6
20260507210403 69 292 0.0 2.6 0.00 0.02 0.00 37 1006.6
20260507205906 70 303 0.9 4.3 0.00 0.02 0.00 36 1006.6
20260507205903 69 188 1.7 3.5 0.00 0.02 0.00 37 1006.6
20260507204902 70 251 0.9 4.3 0.00 0.02 0.00 36 1006.7
20260507204402 70 252 0.0 2.6 0.00 0.02 0.00 38 1006.8
20260507203904 69 154 0.9 2.6 0.00 0.02 0.00 36 1006.9
20260507203402 69 127 0.0 3.5 0.00 0.02 0.00 37 1006.8
20260507202902 69 131 0.0 3.5 0.00 0.02 0.00 37 1006.8
20260507202401 68 166 0.9 6.1 0.00 0.02 0.00 39 1006.9
20260507201902 68 303 1.7 6.1 0.00 0.02 0.00 38 1006.8
20260507201403 69 303 1.7 3.5 0.00 0.02 0.00 37 1007.0
20260507200902 69 243 0.0 3.5 0.00 0.02 0.00 39 1006.9
20260507200401 69 323 0.0 3.5 0.00 0.02 0.00 40 1007.0
20260507195901 69 3 1.7 3.5 0.00 0.02 0.00 39 1006.9
20260507195400 69 16 0.9 2.6 0.00 0.02 0.00 42 1006.9
20260507194900 68 125 0.9 4.3 0.00 0.02 0.00 39 1007.0
20260507194401 67 259 0.9 4.3 0.00 0.02 0.00 39 1007.2
20260507193902 67 326 0.0 4.3 0.00 0.02 0.00 39 1007.2
20260507193404 68 354 0.9 5.2 0.00 0.02 0.00 38 1007.5
20260507193400 67 326 1.7 5.2 0.00 0.02 0.00 39 1007.4
20260507193017 67 142 0.0 5.2 0.00 0.02 0.00 40 1007.4
20260507191901 67 244 0.9 4.3 0.00 0.02 0.00 37 1007.6
20260507191401 67 319 1.7 4.3 0.00 0.02 0.00 40 1007.7
20260507190859 68 243 0.0 2.6 0.00 0.02 0.00 40 1007.7
20260507190402 0 0.0 0.0 0.00 0.02 0.00 1007.7
20260507185901 0 0.0 0.0 0.00 0.02 0.00 1008.0
20260507185400 0 0.0 0.0 0.00 0.02 0.00 1007.9
20260507184858 0 0.0 2.6 0.00 0.02 0.00 1007.9
20260507184357 67 321 0.0 2.6 0.00 0.02 0.00 40 1007.9
20260507183858 67 321 0.0 5.2 0.00 0.02 0.00 40 1008.0
20260507183357 67 243 0.0 5.2 0.00 0.02 0.00 38 1008.1
20260507182857 66 210 0.9 3.5 0.00 0.02 0.00 40 1008.1
20260507182356 66 189 0.0 5.2 0.00 0.02 0.00 38 1008.2
20260507181856 66 338 1.7 5.2 0.00 0.02 0.00 39 1008.2
20260507181357 66 333 1.7 5.2 0.00 0.02 0.00 38 1008.2
20260507180857 66 103 2.6 5.2 0.00 0.02 0.00 42 1008.3
20260507180400 65 341 0.9 3.5 0.00 0.02 0.00 38 1008.2
20260507180355 66 233 0.9 5.2 0.00 0.02 0.00 43 1008.2
20260507180012 65 317 0.9 4.3 0.00 0.02 0.00 42 1008.3
20260507174859 66 30 0.9 5.2 0.00 0.02 0.00 39 1008.7
20260507174854 65 348 0.0 5.2 0.00 0.02 0.00 40 1008.6
20260507173854 66 330 1.7 3.5 0.00 0.02 0.00 41 1008.8
20260507173401 65 250 0.9 4.3 0.00 0.02 0.00 39 1009.0
20260507173355 65 16 1.7 3.5 0.00 0.02 0.00 42 1008.9
20260507172855 65 142 0.9 3.5 0.00 0.02 0.00 44 1008.9
20260507172512 65 261 1.7 4.3 0.00 0.02 0.00 39 1009.0
20260507171354 65 345 0.9 4.3 0.00 0.02 0.00 39 1009.1
20260507170854 65 219 0.9 5.2 0.00 0.02 0.00 41 1009.2
20260507170353 65 327 0.9 5.2 0.00 0.02 0.00 41 1009.2
20260507165854 65 326 1.7 3.5 0.00 0.02 0.00 44 1009.2
20260507165353 64 279 0.0 2.6 0.00 0.02 0.00 40 1009.3
20260507164855 64 326 0.0 3.5 0.00 0.02 0.00 43 1009.4
20260507164354 64 210 0.9 7.8 0.00 0.02 0.00 44 1009.4
20260507163853 64 333 1.7 7.8 0.00 0.02 0.00 40 1009.6
20260507163353 64 333 2.6 3.5 0.00 0.02 0.00 41 1009.8
20260507162852 63 327 0.9 4.3 0.00 0.02 0.00 41 1009.7
20260507162353 63 319 1.7 4.3 0.00 0.02 0.00 41 1009.7
20260507161852 63 4 1.7 4.3 0.00 0.02 0.00 40 1009.7
20260507161352 63 48 1.7 3.5 0.00 0.02 0.00 40 1009.9
20260507160901 63 336 0.9 4.3 0.00 0.02 0.00 43 1010.0
20260507160853 63 124 0.9 4.3 0.00 0.02 0.00 41 1009.9
20260507160352 64 331 1.7 4.3 0.00 0.02 0.00 44 1009.9
20260507155357 63 30 0.0 2.6 0.00 0.02 0.00 46 1010.1
20260507155353 63 312 1.7 4.3 0.00 0.02 0.00 44 1010.0
20260507155005 62 326 0.0 5.2 0.00 0.02 0.00 47 1010.2
20260507153854 62 337 1.7 6.1 0.00 0.02 0.00 46 1010.3
20260507153352 62 300 1.7 6.1 0.00 0.02 0.00 47 1010.2
20260507152852 61 250 1.7 6.1 0.00 0.02 0.00 44 1010.3
20260507152352 61 193 0.9 11.3 0.00 0.02 0.00 49 1010.5
20260507151853 60 324 3.5 11.3 0.00 0.02 0.00 48 1010.4
20260507151351 60 296 3.5 6.1 0.00 0.02 0.00 48 1010.4
20260507150851 60 329 1.7 4.3 0.00 0.02 0.00 50 1010.6
20260507150351 59 330 1.7 3.5 0.00 0.02 0.00 53 1010.7
20260507145859 58 330 1.7 4.3 0.00 0.02 0.00 53 1011.0
20260507145852 59 293 0.9 2.6 0.00 0.02 0.00 52 1010.9
20260507145352 58 159 0.0 4.3 0.00 0.02 0.00 55 1010.8
20260507144351 58 303 1.7 3.5 0.00 0.02 0.00 54 1011.1
20260507143850 57 300 0.0 2.6 0.00 0.02 0.00 57 1011.2
20260507143351 57 329 0.9 2.6 0.00 0.02 0.00 54 1011.2
20260507142851 56 327 0.0 2.6 0.00 0.02 0.00 56 1011.3
20260507142355 56 343 0.0 1.7 0.00 0.02 0.00 58 1011.5
20260507142350 56 293 0.0 2.6 0.00 0.02 0.00 56 1011.2
20260507141349 56 233 0.0 1.7 0.00 0.02 0.00 56 1011.5
20260507140851 55 330 0.9 1.7 0.00 0.02 0.00 55 1011.5
20260507140349 55 326 0.9 1.7 0.00 0.02 0.00 55 1011.6
20260507135850 55 334 0.0 1.7 0.00 0.02 0.00 54 1011.7
20260507135350 55 303 0.0 2.6 0.00 0.02 0.00 56 1011.7
20260507134855 55 313 0.0 4.3 0.00 0.02 0.00 56 1011.8
20260507134850 55 336 0.0 3.5 0.00 0.02 0.00 56 1011.7
20260507133851 55 338 1.7 4.3 0.00 0.02 0.00 56 1011.8
20260507133349 55 324 0.9 2.6 0.00 0.02 0.00 57 1011.8
20260507132848 54 326 0.9 2.6 0.00 0.02 0.00 57 1011.9
20260507132349 54 327 0.0 4.3 0.00 0.02 0.00 57 1011.9
20260507131849 54 20 0.0 4.3 0.00 0.02 0.00 60 1012.0
20260507131350 54 255 0.0 2.6 0.00 0.02 0.00 58 1011.9
20260507130853 54 245 0.0 3.5 0.00 0.02 0.00 59 1012.0
20260507130848 54 312 0.9 3.5 0.00 0.02 0.00 58 1011.9
20260507125853 54 358 0.0 4.3 0.00 0.02 0.00 60 1012.1
20260507125848 54 345 0.0 3.5 0.00 0.02 0.00 59 1011.9
20260507124846 54 344 0.9 4.3 0.00 0.02 0.00 61 1012.1
20260507124348 54 330 0.9 4.3 0.00 0.02 0.00 60 1012.0
20260507123855 53 323 1.7 3.5 0.00 0.02 0.00 61 1011.7
20260507123848 54 330 1.7 4.3 0.00 0.02 0.00 61 1011.9
20260507122848 53 329 0.9 3.5 0.00 0.02 0.00 62 1011.7
20260507122346 53 316 0.0 2.6 0.00 0.02 0.00 64 1011.7
20260507121847 53 345 0.0 2.6 0.00 0.02 0.00 63 1011.8
20260507121348 53 327 0.9 2.6 0.00 0.02 0.00 65 1011.8
20260507120852 53 344 0.9 3.5 0.00 0.02 0.00 66 1011.5
20260507120846 53 334 0.9 3.5 0.00 0.02 0.00 64 1011.6
20260507115846 53 333 0.9 2.6 0.00 0.02 0.00 67 1011.4
20260507115347 53 344 0.0 2.6 0.00 0.02 0.00 67 1011.5
20260507114845 53 338 0.0 0.9 0.00 0.02 0.00 68 1011.5
20260507114347 53 334 0.0 1.7 0.00 0.02 0.00 68 1011.4
20260507113855 53 241 0.0 0.9 0.00 0.02 0.00 69 1011.5
20260507113846 53 344 0.0 1.7 0.00 0.02 0.00 68 1011.4
20260507113348 53 317 0.0 1.7 0.00 0.02 0.00 69 1011.3
20260507112347 53 337 0.9 0.9 0.00 0.02 0.00 75 1011.4
20260507111847 0 0.0 0.0 0.00 0.02 0.00 1011.5
20260507111346 0 0.0 0.0 0.00 0.02 0.00 1011.5
20260507110846 0 0.0 0.0 0.00 0.02 0.00 1011.5
20260507110348 0 0.0 0.0 0.00 0.02 0.00 1011.4
20260507110344 0 0.0 0.0 0.00 0.02 0.00 1011.5
20260507105951 0 0.0 0.0 0.00 0.02 0.00 1011.4
20260507104841 0 0.0 0.0 0.00 0.02 0.00 1011.3
20260507104340 0 0.0 0.0 0.00 0.02 0.00 1011.2
20260507103839 0 0.0 0.0 0.00 0.02 0.00 1011.0
20260507103337 0 0.0 0.0 0.00 0.02 0.00 1010.8
20260507102838 0 0.0 0.0 0.00 0.02 0.00 1010.9
20260507102336 0 0.0 0.0 0.00 0.02 0.00 1011.0
20260507101836 0 0.0 0.0 0.00 0.02 0.00 1010.8
20260507101334 0 0.0 0.0 0.00 0.02 0.00 1010.7
20260507100838 0 0.0 0.0 0.00 0.02 0.00 1010.6
20260507100834 0 0.0 0.0 0.00 0.02 0.00 1010.8
20260507095836 0 0.0 0.0 0.00 0.02 0.00 1010.6
20260507095832 0 0.0 0.0 0.00 0.02 0.00 1010.8
20260507095436 0 0.0 0.0 0.00 0.02 0.00 1010.3
20260507094332 0 0.0 0.0 0.00 0.02 0.00 1010.3
20260507094329 0 0.0 0.0 0.00 0.02 0.00 1010.4
20260507093326 0 0.0 0.0 0.00 0.02 0.00 1010.4
20260507092830 0 0.0 0.0 0.00 0.02 0.00 1010.3
20260507092826 0 0.0 0.0 0.00 0.02 0.00 1010.3
20260507091823 0 0.0 0.0 0.00 0.02 0.00 1010.5
20260507091323 0 0.0 0.0 0.00 0.02 0.00 1010.4
20260507090823 0 0.0 0.0 0.00 0.02 0.00 1010.4
20260507090326 0 0.0 0.0 0.00 0.02 0.00 1010.3
20260507090322 0 0.0 0.0 0.00 0.02 0.00 1010.3
20260507085927 0 0.0 0.0 0.00 0.02 0.00 1010.4
20260507085426 0 0.0 0.0 0.00 0.02 0.00 1010.4
20260507084318 0 0.0 0.0 0.00 0.02 0.00 1010.4
20260507083818 0 0.0 2.6 0.00 0.02 0.00 1010.2
20260507083320 55 348 0.0 4.3 0.00 0.02 0.00 76 1010.3
20260507083316 61 337 0.0 2.6 0.00 0.02 0.00 75 1010.3
20260507082814 55 316 0.0 3.5 0.00 0.02 0.00 76 1010.3
20260507082432 55 337 0.9 4.3 0.00 0.02 0.00 75 1010.2
20260507081314 55 331 1.7 4.3 0.00 0.02 0.00 75 1010.1
20260507080813 55 341 0.9 4.3 0.00 0.02 0.00 78 1009.9
20260507080315 55 296 1.7 3.5 0.00 0.02 0.00 79 1009.8
20260507075812 55 334 0.0 4.3 0.00 0.02 0.00 80 1009.7
20260507075314 55 330 0.9 4.3 0.00 0.02 0.00 80 1009.6
20260507074811 56 331 0.9 2.6 0.00 0.02 0.00 80 1009.7
20260507074314 56 314 0.0 2.6 0.00 0.02 0.00 80 1009.6
20260507073813 56 326 0.9 2.6 0.00 0.02 0.00 80 1009.6
20260507073314 56 331 0.0 1.7 0.00 0.02 0.00 80 1009.6
20260507072812 56 317 0.0 2.6 0.00 0.02 0.00 80 1009.7
20260507072317 56 353 0.9 2.6 0.00 0.02 0.00 80 1009.6
20260507072312 56 330 0.9 2.6 0.00 0.02 0.00 80 1009.3
20260507071317 56 355 0.9 3.5 0.00 0.02 0.00 79 1009.6
20260507071311 56 336 0.0 4.3 0.00 0.02 0.00 79 1009.6
20260507070811 56 323 0.9 4.3 0.00 0.02 0.00 79 1009.6
20260507065817 56 337 0.0 2.6 0.00 0.02 0.00 79 1009.7
20260507065812 56 331 1.7 2.6 0.00 0.02 0.00 79 1009.6
20260507064811 56 309 0.9 3.5 0.00 0.02 0.00 79 1009.8
20260507064312 56 345 1.7 3.5 0.00 0.02 0.00 79 1009.9
20260507063810 56 344 0.9 2.6 0.00 0.02 0.00 79 1010.0
20260507063312 56 321 0.0 3.5 0.00 0.02 0.00 80 1010.0
20260507062810 56 309 0.0 3.5 0.00 0.02 0.00 80 1010.1
20260507062311 56 248 0.0 1.7 0.00 0.02 0.00 80 1010.1
20260507061810 56 336 0.9 2.6 0.00 0.02 0.00 79 1010.2
20260507061310 56 258 0.0 2.6 0.00 0.02 0.00 79 1010.1
20260507060811 56 306 0.9 2.6 0.00 0.02 0.00 78 1010.0
20260507060316 57 326 0.9 4.3 0.00 0.02 0.00 78 1010.1
20260507060311 56 289 0.0 4.3 0.00 0.02 0.00 78 1010.0
20260507055311 57 330 0.0 3.5 0.00 0.02 0.00 78 1010.1
20260507054811 57 262 0.0 4.3 0.00 0.02 0.00 77 1010.0
20260507054314 57 319 0.0 2.6 0.00 0.02 0.00 78 1009.7
20260507054310 57 324 0.9 4.3 0.00 0.02 0.00 78 1009.8
20260507053311 57 300 0.9 4.3 0.00 0.02 0.00 78 1009.7
20260507052812 57 340 0.0 4.3 0.00 0.02 0.00 77 1009.8
20260507052311 57 329 0.0 2.6 0.00 0.02 0.00 77 1009.7
20260507051811 57 309 0.0 2.6 0.00 0.02 0.00 79 1010.0
20260507051308 57 319 0.0 2.6 0.00 0.02 0.00 79 1009.9
20260507050809 57 338 0.9 3.5 0.00 0.02 0.00 79 1009.8
20260507050308 57 344 0.9 3.5 0.00 0.02 0.00 80 1010.1
20260507045808 57 324 0.0 5.2 0.00 0.02 0.00 80 1010.1
20260507045309 57 358 0.0 5.2 0.00 0.02 0.00 80 1010.0
20260507044809 57 266 0.9 3.5 0.00 0.02 0.00 80 1009.9
20260507044309 57 321 0.9 3.5 0.00 0.02 0.00 80 1009.7
20260507043808 57 343 0.0 3.5 0.00 0.02 0.00 80 1009.3
20260507043308 58 312 1.7 7.8 0.00 0.02 0.00 80 1009.8
20260507042808 58 331 2.6 7.8 0.00 0.02 0.00 80 1010.1
20260507042307 58 327 1.7 4.3 0.00 0.02 0.00 81 1010.0
20260507041809 58 319 0.0 5.2 0.00 0.02 0.00 82 1010.1
20260507041309 58 326 1.7 6.1 0.00 0.02 0.00 81 1009.9
20260507040808 58 334 0.9 6.1 0.00 0.02 0.00 81 1009.2
20260507040309 58 264 0.9 6.1 0.00 0.02 0.00 81 1009.4
20260507035807 58 351 2.6 6.1 0.00 0.02 0.17 81 1009.4
20260507035307 59 336 1.7 4.3 0.00 0.02 0.17 81 1009.7
20260507034813 59 336 0.9 7.8 0.00 0.02 0.17 81 1009.4
20260507034807 59 337 0.9 7.8 0.00 0.02 0.17 81 1009.4
20260507033807 59 336 0.9 6.1 0.00 0.02 0.17 80 1009.2
20260507033307 59 344 2.6 7.8 0.00 0.02 0.17 80 1009.2
20260507032808 59 337 2.6 7.8 0.00 0.02 0.17 80 1009.3
20260507032308 60 316 1.7 7.8 0.00 0.02 0.17 81 1009.2
20260507031807 60 334 2.6 7.8 0.00 0.02 0.17 80 1009.4
20260507031311 60 331 0.9 5.2 0.00 0.02 0.17 80 1009.2
20260507031307 60 334 1.7 4.3 0.00 0.02 0.17 80 1009.3
20260507030307 60 320 1.7 5.2 0.00 0.02 0.17 80 1009.3
20260507025806 60 344 1.7 3.5 0.00 0.02 0.17 80 1009.0
20260507025306 60 331 0.9 7.8 0.00 0.02 0.17 80 1008.8
20260507024807 60 336 1.7 7.8 0.00 0.02 0.17 81 1008.8
20260507024306 60 337 1.7 5.2 0.00 0.02 0.17 81 1008.9
20260507023806 61 327 1.7 5.2 0.00 0.02 0.17 81 1008.9
20260507023305 61 329 0.9 3.5 0.00 0.02 0.17 82 1008.8
20260507022805 61 336 1.7 5.2 0.00 0.02 0.17 82 1008.8
20260507022310 61 330 1.7 3.5 0.00 0.02 0.17 84 1008.6
20260507022306 61 326 2.6 5.2 0.00 0.02 0.17 83 1008.6
20260507021927 61 326 0.0 3.5 0.00 0.02 0.17 84 1008.6
20260507021305 61 344 0.0 1.7 0.00 0.02 0.17 84 1008.9
20260507020306 61 337 0.0 3.5 0.00 0.02 0.17 84 1008.6
20260507015805 61 306 1.7 3.5 0.00 0.02 0.17 84 1008.6
20260507015306 61 327 0.9 2.6 0.00 0.02 0.17 85 1008.7
20260507014805 61 233 0.0 3.5 0.00 0.02 0.17 85 1008.8
20260507014309 61 327 0.0 3.5 0.00 0.02 0.17 85 1008.5
20260507014305 61 330 0.9 3.5 0.00 0.02 0.17 85 1008.8
20260507013312 62 357 0.0 3.5 0.00 0.02 0.17 84 1008.3
20260507013305 61 289 0.9 3.5 0.00 0.02 0.17 85 1008.3
20260507012805 61 354 0.9 3.5 0.00 0.02 0.17 85 1008.3
20260507011810 62 336 1.7 3.5 0.00 0.02 0.17 85 1008.5
20260507011805 62 333 0.0 2.6 0.00 0.02 0.17 84 1008.3
20260507010810 63 338 2.6 7.8 0.00 0.02 0.17 85 1008.7
20260507010805 62 334 2.6 4.3 0.00 0.02 0.17 85 1008.6
20260507010304 62 344 1.7 7.8 0.00 0.02 0.17 85 1008.7
20260507005305 63 326 0.9 6.1 0.00 0.02 0.17 85 1008.7
20260507004804 64 317 0.0 4.3 0.00 0.02 0.17 86 1008.7
20260507004303 64 244 0.9 4.3 0.00 0.02 0.17 85 1008.6
20260507003803 64 307 0.0 2.6 0.00 0.02 0.17 86 1008.4
20260507003302 64 309 0.0 2.6 0.00 0.02 0.17 86 1008.5
20260507002803 64 326 0.9 2.6 0.00 0.02 0.17 86 1008.6
20260507002307 65 344 0.0 3.5 0.01 0.02 0.17 86 1008.2
20260507002305 64 333 0.9 3.5 0.00 0.02 0.17 86 1008.4
20260507001308 65 320 0.0 3.5 0.02 0.02 0.17 87 1008.1
20260507001303 65 336 0.0 3.5 0.01 0.02 0.17 87 1008.0
20260507000923 65 338 0.9 2.6 0.02 0.02 0.17 88 1008.0
20260506235801 65 20 0.9 2.6 0.02 0.02 0.17 89 1007.9
20260506235306 65 327 0.0 0.0 0.02 0.02 0.17 90 1007.7
20260506234802 66 337 0.0 0.0 0.02 0.02 0.17 90 1007.8
20260506234302 66 336 0.0 0.9 0.02 0.02 0.17 90 1007.6
20260506233805 66 334 0.0 1.7 0.02 0.02 0.17 89 1007.3
20260506233801 66 336 0.0 0.9 0.02 0.02 0.17 89 1007.5
20260506232808 68 145 0.0 0.9 0.01 0.01 0.17 87 1007.2
20260506232803 67 245 0.0 1.7 0.02 0.02 0.17 88 1007.1
20260506232301 67 302 0.0 1.7 0.02 0.02 0.17 88 1006.8
20260506231303 69 154 0.0 0.0 0.01 0.01 0.17 87 1006.9
20260506230801 69 154 0.0 0.0 0.00 0.00 0.16 84 1006.8
20260506230301 69 154 0.0 0.0 0.00 0.00 0.16 83 1006.5
20260506225801 70 154 0.0 0.0 0.00 0.00 0.16 82 1006.6
20260506225300 70 154 0.0 0.0 0.00 0.00 0.16 82 1006.6
20260506224801 70 141 0.0 0.0 0.00 0.00 0.16 81 1006.7
20260506224301 71 141 0.0 0.0 0.00 0.00 0.16 81 1006.6
20260506223800 71 141 0.0 0.0 0.00 0.00 0.16 81 1006.6
20260506223300 0 0.0 0.0 0.00 0.00 0.16 1006.5
20260506222110 71 134 0.0 1.7 0.00 0.16 0.16 79 1006.6
20260506221610 71 159 0.0 1.7 0.00 0.16 0.16 79 1006.5
20260506221111 71 164 0.0 1.7 0.00 0.16 0.16 81 1006.6
20260506220609 71 151 0.0 0.9 0.00 0.16 0.16 82 1006.4
20260506220113 70 145 0.0 0.0 0.00 0.16 0.16 84 1006.6
20260506220108 70 140 0.0 0.9 0.00 0.16 0.16 83 1006.3
20260506215112 69 188 0.0 1.7 0.00 0.16 0.16 83 1006.5
20260506215108 69 138 0.0 1.7 0.00 0.16 0.16 83 1006.5